Regional Weather Roundup
Issued by NWS New Orleans/Baton Rouge, LA

Home | Current Version | Previous Version | Text Only | Print | Product List | Glossary On
Versions: 1 2 3 4 5 6 7 8 9 10 11 12 13 14 15 16 17 18 19 20 21 22 23 24 25 26 27 28 29 30 31 32 33 34 35 36 37 38 39 40 41 42 43 44 45 46 47 48 49 50
675
ASUS44 KLIX 230605
RWRLIX
NEW ORLEANS REGIONAL WEATHER ROUNDUP
NATIONAL WEATHER SERVICE NEW ORLEANS LA
1200 AM CST SUN NOV 23 2014

NOTE: "FAIR" INDICATES FEW OR NO CLOUDS BELOW 12,000 FEET WITH NO
      SIGNIFICANT WEATHER AND/OR OBSTRUCTIONS TO VISIBILITY.
      SKY/WX - SKY CONDITION AND SIGNIFICANT WEATHER.
      TMP - AIR TEMPERATURE.     DP    - DEWPOINT TEMPERATURE.
      RH  - RELATIVE HUMIDITY.   PRES  - PRESSURE.
      HI  - HEAT INDEX.          WCI   - WIND CHILL INDEX.

*  THESE STATIONS ARE NOT NWS OR FAA STATIONS AND ARE NOT UNDER
   NWS QUALITY CONTROL.

LAZ038-040-048-061>063-065>067-069-230700-
SOUTHEAST LOUISIANA

CITY           SKY/WX    TMP DP  RH WIND       PRES   REMARKS
N.O. AUDUBON     N/A     61  61 100 MISG        N/A
6HR MIN TEMP:  61; 6HR MAX TEMP:  65;

N.O. INTL ARPT CLOUDY    62  60  93 E17       29.83F FOG
6HR MIN TEMP:  62; 6HR MAX TEMP:  64; 6HR PCP: TRACE;

N.O. LAKEFRONT CLOUDY    62  59  90 E17       29.87F
6HR MIN TEMP:  61; 6HR MAX TEMP:  63;

N.O. DOWNTOWN* CLOUDY    61  55  82 E8        29.87F
6HR MIN TEMP:  61; 6HR MAX TEMP:  64;

SLIDELL        CLOUDY    64  60  87 E7        29.89F
6HR MIN TEMP:  64; 6HR MAX TEMP:  65;

BATON ROUGE    CLOUDY    64  61  90 E13       29.87F
6HR MIN TEMP:  63; 6HR MAX TEMP:  64;

BOOTHVILLE     CLOUDY    65  65 100 E12       29.86F
6HR MIN TEMP:  62; 6HR MAX TEMP:  66; 6HR PCP: TRACE;

BELLE CHASSE   CLOUDY    62  59  90 E16       29.85F
6HR MIN TEMP:  62; 6HR MAX TEMP:  67;

BOGALUSA*        N/A     64  59  82 E5        29.93F
6HR MIN TEMP:  63; 6HR MAX TEMP:  65;

NEW ROADS*     CLOUDY    65  62  90 E10       29.87F
6HR MIN TEMP:  64; 6HR MAX TEMP:  65;

GONZALES*      CLOUDY    63  63 100 E9        29.86F
6HR MIN TEMP:  62; 6HR MAX TEMP:  64;

HAMMOND*       CLOUDY    64  61  88 E12G18    29.90F
HOUMA*         CLOUDY    65  64  96 NE7       29.85S
6HR MIN TEMP:  64; 6HR MAX TEMP:  66;

PORT FOURCHON* MOCLDY    68  66  94 E12G17    29.87F

$$

MSZ070-080>082-230700-
SOUTHERN MISSISSIPPI

CITY           SKY/WX    TMP DP  RH WIND       PRES   REMARKS
MCCOMB         CLOUDY    61  58  90 E10G17    29.90F
6HR MIN TEMP:  60; 6HR MAX TEMP:  61;

GULFPORT       CLOUDY    63  59  87 E13       29.90F
6HR MIN TEMP:  62; 6HR MAX TEMP:  64;

BILOXI         CLOUDY    63  60  92 E13       29.91F
6HR MIN TEMP:  62; 6HR MAX TEMP:  64;

PASCAGOULA     CLOUDY    62  59  90 E8        29.92F
6HR MIN TEMP:  62; 6HR MAX TEMP:  63;


$$

COASTAL OBSERVATIONS
LAKE AND NEARSHORE STATIONS

STATION/POSITION TIME  TEMP    WIND        PRES    WAVE
                       AIR SEA DIR/SP/G            HT/PER
                 (UTC) (F)     (DEG/KT/KT) (MB)    (FT/S)
PASCAGOULA       0600   62      70/ 15/ 19 1012.7
WAVELAND YACHT   0600   61      90/ 16/ 19 1011.7
GRAND ISLE       0600   67 62  120/  7/ 13 1011.0
SOUTHWEST PASS   0600   69 72              1011.4
NEW CANAL        0600   62 54   80/  6/ 14 1012.2
SHELL BEACH      0600   60 53   70/ 17/ 19 1010.9

OFFSHORE STATIONS

STATION/POSITION TIME  TEMP    WIND        PRES    WAVE
                       AIR SEA DIR/SP/G            HT/PER
                 (UTC) (F)     (DEG/KT/KT) (MB)    (FT/S)
64 S DAUPHIN ISL 0451   72 72  100/ 21/ 27 1011.5    8/ 8

$$




USA.gov is the U.S. government's official web portal to all federal, state and local government web resources and services.